[[{"header":{"parameterUnit":"m.s-1","parameterCategory":1,"la1":30.2991,"la2":30.254,"lo1":-89.0895,"lo2":-89.0444,"dy":0.0017,"dx":0.0017,"nx":28,"ny":28,"refTime":"2024-03-22T03:00:00:Z","depth":0,"parameterNumber":2,"parameterNumberName":"U-component_of_WINDS"},"data":[0,0,0,0,0,0,0,0,0,0,0,0,0,0,0,0,0,0,0,0,0,0,0,0,0,0,0,0,0,0,0,0,0,0,0,0,0,0,0,0,0,0,0,0,0,0,0,0,0,0,0,0,0,0,0,0,0,0,-5.5447,-5.5447,0,-5.5484,-5.5485,-5.5485,-5.5334,-5.5329,-5.5325,-5.532,-5.536,-5.5365,-5.5371,0,0,0,0,0,0,0,0,0,0,0,0,0,-5.5247,-5.5251,-5.5447,-5.5448,-5.5448,-5.5484,-5.5485,-5.5485,-5.5334,-5.5329,-5.5323,-5.5318,-5.5359,-5.5365,-5.5371,0,0,0,0,0,0,0,0,0,0,0,0,0,-5.5314,-5.5253,-5.5447,-5.5377,-5.5371,-5.5484,-5.5485,-5.5485,-5.5335,-5.5329,-5.5322,-5.5316,-5.5357,-5.5364,-5.5372,-5.5555,0,0,-5.5396,-5.5399,0,0,0,0,0,0,0,0,-5.531,-5.5321,-5.5387,-5.5382,-5.5376,-5.5397,-5.5429,-5.5509,-5.5337,-5.5349,-5.532,-5.5312,-5.5378,-5.5384,-5.5406,-5.5557,-5.5558,-5.5397,-5.5401,-5.5405,-5.5407,0,0,0,0,0,0,0,-5.5306,-5.5319,-5.5462,-5.5388,-5.5381,-5.5344,-5.5346,-5.5443,-5.5401,-5.5347,-5.5337,-5.5343,-5.5374,-5.5398,-5.5405,-5.5559,-5.5396,-5.5403,-5.5408,-5.5411,-5.5863,-5.587,0,0,0,0,0,0,-5.531,-5.5316,-5.5461,-5.5463,-5.5326,-5.5353,-5.5356,-5.5397,-5.5399,-5.5393,-5.5349,-5.5336,-5.5388,-5.5396,-5.5406,-5.5621,-5.5405,-5.5412,-5.5417,-5.5856,-5.5865,-5.5873,0,0,0,0,0,0,-5.5307,-5.5325,-5.5459,-5.5387,-5.5401,-5.5364,-5.5412,-5.5402,-5.5426,-5.54,-5.5392,-5.5382,-5.5383,-5.5395,-5.5519,-5.562,-5.5416,-5.5423,-5.5847,-5.5859,-5.5869,-5.6052,0,0,0,0,0,0,-5.5301,-5.5324,-5.5393,-5.5389,-5.5405,-5.5571,-5.5418,-5.5407,-5.544,-5.5423,-5.5429,-5.5423,-5.5379,-5.5508,-5.5527,-5.5627,-5.5429,-5.5838,-5.5852,-5.5865,-5.6037,-5.6068,-5.6095,0,0,0,0,0,-5.5295,-5.5443,-5.5397,-5.5415,-5.549,-5.5577,-5.5586,-5.5532,-5.5448,-5.5517,-5.5501,-5.5423,-5.5606,-5.5522,-5.5542,-5.5647,-5.5831,-5.5848,-5.5864,-5.6024,-5.6062,-5.6094,0,0,0,0,0,0,-5.5459,-5.5441,-5.539,-5.5541,-5.5562,-5.5552,-5.5637,-5.5574,-5.5619,-5.5602,-5.5532,-5.5535,-5.5672,-5.5671,-5.5578,-5.5824,-5.5704,-5.5726,-5.5819,-5.5855,-5.5884,-5.5881,-5.5435,0,0,0,0,0,-5.5513,-5.5585,-5.5565,-5.5701,-5.5714,-5.5674,-5.571,-5.5666,-5.5685,-5.5693,-5.5686,-5.5708,-5.577,-5.5812,-5.5868,-5.6036,-5.6036,-5.6118,-5.6147,-5.6171,-5.619,-5.628,-5.6316,-5.5926,-5.5926,-5.5926,0,0,-5.5625,-5.5624,-5.5674,-5.5734,-5.5745,-5.5822,-5.5682,-5.5769,-5.5825,-5.5706,-5.5823,-5.5819,-5.5838,-5.5986,-5.605,-5.599,-5.6298,-5.6192,-5.6211,-5.6217,-5.6301,-5.6338,-5.637,-5.5938,-5.5936,-5.5934,0,0,-5.5869,-5.5875,-5.5989,-5.6003,-5.6021,-5.5994,-5.6022,-5.6021,-5.6014,-5.613,-5.6042,-5.6109,-5.6217,-5.6235,-5.6259,-5.6511,-5.6441,-5.6531,-5.6682,-5.6771,-5.6801,-5.6828,-5.6919,-5.6952,-5.655,-5.6551,-5.6551,0,-5.6006,-5.6117,-5.6055,-5.6149,-5.6178,-5.6074,-5.6189,-5.6206,-5.6242,-5.6266,-5.6197,-5.6332,-5.6338,-5.6488,-5.655,-5.6572,-5.6602,-5.653,-5.6802,-5.6828,-5.6852,-5.6938,-5.6972,-5.6562,-5.656,-5.6559,-5.6558,0,-5.6285,-5.6364,-5.6454,-5.6491,-5.6531,-5.6635,-5.659,-5.6638,-5.6591,-5.6572,-5.6692,-5.6696,-5.6751,-5.6783,-5.6739,-5.6928,-5.689,-5.6813,-5.6692,-5.6901,-5.6981,-5.7013,-5.6577,-5.6573,-5.657,-5.6567,0,0,-5.6632,-5.6635,-5.6669,-5.6685,-5.6699,-5.6759,-5.6859,-5.6912,-5.6955,-5.6984,-5.7067,-5.7162,-5.7091,-5.7118,-5.7074,-5.7152,-5.7353,-5.7065,-5.7065,-5.7119,-5.7563,-5.7621,-5.766,-5.7307,-5.7313,-5.7318,-5.7562,0,-5.6871,-5.7041,-5.6989,-5.7161,-5.7233,-5.7137,-5.7223,-5.7242,-5.7227,-5.7287,-5.727,-5.7339,-5.7239,-5.7255,-5.7328,-5.7313,-5.7441,-5.7295,-5.7384,-5.7388,-5.7382,-5.7701,-5.7763,-5.7992,-5.7592,-5.7597,-5.7601,0,-5.7172,-5.7213,-5.7392,-5.7394,-5.7423,-5.7502,-5.7548,-5.7606,-5.7626,-5.7609,-5.764,-5.7581,-5.768,-5.7559,-5.7695,-5.7596,-5.763,-5.7629,-5.7636,-5.7642,-5.7507,-5.7717,-5.8064,-5.8099,-5.7649,-5.7645,-5.7642,0,-5.7408,-5.7508,-5.7628,-5.7645,-5.765,-5.7709,-5.7714,-5.7726,-5.7762,-5.7803,-5.7826,-5.7878,-5.7907,-5.7949,-5.7906,-5.7821,-5.8049,-5.7923,-5.8039,-5.804,-5.8091,-5.8088,-5.8449,-5.8113,-5.8112,-5.8112,-5.8111,0,-5.768,-5.7793,-5.7734,-5.7808,-5.7933,-5.7873,-5.7999,-5.7993,-5.8005,-5.8077,-5.7996,-5.8066,-5.8005,-5.8069,-5.8036,-5.8154,-5.8168,-5.8158,-5.8148,-5.8165,-5.8167,-5.8186,-5.8169,-5.8121,-5.8119,-5.8117,-5.8115,0,-5.7964,-5.7929,-5.8053,-5.8049,-5.8051,-5.8143,-5.8139,-5.8208,-5.8187,-5.828,-5.8298,-5.8266,-5.8338,-5.8299,-5.8373,-5.8351,-5.8504,-5.8472,-5.8498,-5.8489,-5.8607,-5.8597,-5.8993,-5.9042,-5.8675,-5.8678,-5.8681,0,-5.814,-5.8225,-5.823,-5.8272,-5.8283,-5.8352,-5.8389,-5.8334,-5.8376,-5.8405,-5.8471,-5.8535,-5.8584,-5.8703,-5.8687,-5.8744,-5.8712,-5.8848,-5.872,-5.8736,-5.8715,-5.871,-5.8719,-5.8873,-5.8878,-5.8881,-5.8884,0,-5.8456,-5.8435,-5.849,-5.8541,-5.8588,-5.8625,-5.8655,-5.8695,-5.8641,-5.8692,-5.8764,-5.8802,-5.8878,-5.8943,-5.8992,-5.8998,-5.8933,-5.8924,-5.8954,-5.8972,-5.8984,-5.898,-5.8568,-5.8915,-5.8912,-5.891,-5.8908,-5.8907,-5.8691,-5.8762,-5.8778,-5.8843,-5.886,-5.8891,-5.8956,-5.8944,-5.9003,-5.906,-5.9025,-5.911,-5.9128,-5.9187,-5.9202,-5.9268,-5.9214,-5.9257,-5.9268,-5.928,-5.9296,-5.8974,-5.9277,-5.9276,-5.9275,-5.9275,-5.9274,0,-5.9003,-5.9008,-5.9069,-5.9115,-5.9167,-5.9101,-5.9132,-5.918,-5.9256,-5.9278,-5.9328,-5.9412,-5.9476,-5.9466,-5.9524,-5.9579,-5.9551,-5.9596,-5.9591,-5.9594,-5.9341,-5.9309,-5.9618,-5.9618,-5.9618,-5.9618,-5.9618,-5.9618,-5.9171,-5.9289,-5.927,-5.9397,-5.9401,-5.9484,-5.9507,-5.9536,-5.9553,-5.9651,-5.9703,-5.9696,-5.9706,-5.9764,-5.982,-5.9815,-5.9841,-5.9897,-5.9882,-5.9646,-5.9612,-5.9579,-5.9549,-5.9903,-5.9904,-6.013,-6.0132,-6.0133]},{"header":{"parameterUnit":"m.s-1","parameterCategory":1,"la1":30.2991,"la2":30.254,"lo1":-89.0895,"lo2":-89.0444,"dy":0.0017,"dx":0.0017,"nx":28,"ny":28,"refTime":"2024-03-22T03:00:00:Z","depth":0,"parameterNumber":3,"parameterNumberName":"V-component_of_WINDS"},"data":[0,0,0,0,0,0,0,0,0,0,0,0,0,0,0,0,0,0,0,0,0,0,0,0,0,0,0,0,0,0,0,0,0,0,0,0,0,0,0,0,0,0,0,0,0,0,0,0,0,0,0,0,0,0,0,0,0,0,-1.6831,-1.6831,0,-1.6825,-1.6825,-1.6825,-1.6776,-1.6775,-1.6773,-1.6772,-1.6766,-1.6767,-1.6768,0,0,0,0,0,0,0,0,0,0,0,0,0,-1.6801,-1.6802,-1.6831,-1.6831,-1.6831,-1.6825,-1.6825,-1.6825,-1.6776,-1.6775,-1.6773,-1.6772,-1.6766,-1.6767,-1.6768,0,0,0,0,0,0,0,0,0,0,0,0,0,-1.6806,-1.6802,-1.6831,-1.6806,-1.6804,-1.6825,-1.6825,-1.6825,-1.6776,-1.6775,-1.6773,-1.6771,-1.6766,-1.6767,-1.6768,-1.6814,0,0,-1.6773,-1.6773,0,0,0,0,0,0,0,0,-1.6806,-1.6808,-1.681,-1.6808,-1.6805,-1.6799,-1.6812,-1.6821,-1.6777,-1.6787,-1.6772,-1.677,-1.6779,-1.6779,-1.6782,-1.6813,-1.6813,-1.6773,-1.6774,-1.6774,-1.6775,0,0,0,0,0,0,0,-1.6806,-1.6808,-1.6829,-1.681,-1.6807,-1.6795,-1.6794,-1.6813,-1.6793,-1.6786,-1.6782,-1.6782,-1.6777,-1.6781,-1.6781,-1.6813,-1.6773,-1.6774,-1.6775,-1.6776,-1.6879,-1.6881,0,0,0,0,0,0,-1.6809,-1.6808,-1.6829,-1.6829,-1.6801,-1.6797,-1.6796,-1.6803,-1.6793,-1.6789,-1.6784,-1.678,-1.6779,-1.678,-1.6781,-1.6832,-1.6774,-1.6776,-1.6777,-1.6877,-1.6879,-1.6881,0,0,0,0,0,0,-1.6809,-1.6811,-1.6829,-1.6817,-1.6818,-1.6799,-1.6808,-1.6804,-1.6807,-1.6791,-1.6787,-1.6791,-1.6778,-1.6779,-1.6805,-1.6831,-1.6776,-1.6778,-1.6875,-1.6878,-1.688,-1.6935,0,0,0,0,0,0,-1.6808,-1.6812,-1.6829,-1.6818,-1.6819,-1.6854,-1.681,-1.6805,-1.681,-1.6805,-1.6797,-1.6794,-1.6776,-1.6803,-1.6807,-1.6832,-1.6779,-1.6873,-1.6876,-1.688,-1.6931,-1.694,-1.6947,0,0,0,0,0,-1.6807,-1.6845,-1.683,-1.6833,-1.6841,-1.6856,-1.6857,-1.6836,-1.6812,-1.6829,-1.6818,-1.6794,-1.6828,-1.6807,-1.681,-1.6836,-1.6871,-1.6875,-1.6879,-1.6928,-1.6938,-1.6947,0,0,0,0,0,0,-1.6861,-1.6843,-1.6826,-1.6862,-1.6861,-1.6848,-1.6869,-1.6848,-1.6853,-1.6848,-1.6822,-1.6821,-1.6851,-1.6846,-1.6823,-1.6878,-1.6845,-1.685,-1.6881,-1.689,-1.6898,-1.6899,-1.678,0,0,0,0,0,-1.6876,-1.689,-1.6874,-1.6908,-1.6908,-1.6888,-1.6894,-1.6878,-1.6876,-1.6875,-1.6866,-1.6865,-1.6875,-1.6882,-1.6891,-1.693,-1.6927,-1.6949,-1.6957,-1.6964,-1.6969,-1.6988,-1.6997,-1.6895,-1.6895,-1.6895,0,0,-1.691,-1.6902,-1.6913,-1.6918,-1.6915,-1.693,-1.6888,-1.6906,-1.6916,-1.6878,-1.6902,-1.6895,-1.6892,-1.6925,-1.6939,-1.6921,-1.6996,-1.6969,-1.6975,-1.6976,-1.6993,-1.7003,-1.7011,-1.6898,-1.6898,-1.6897,0,0,-1.6978,-1.6973,-1.7,-1.6997,-1.6993,-1.6979,-1.6986,-1.6975,-1.6969,-1.6993,-1.6963,-1.6975,-1.6994,-1.6992,-1.6994,-1.7058,-1.7036,-1.7062,-1.7104,-1.7123,-1.7131,-1.7138,-1.716,-1.7169,-1.7067,-1.7067,-1.7067,0,-1.702,-1.7041,-1.7016,-1.7035,-1.7038,-1.7002,-1.7029,-1.7027,-1.7026,-1.7029,-1.7009,-1.703,-1.7026,-1.7057,-1.7073,-1.7075,-1.7081,-1.7063,-1.7131,-1.7138,-1.7144,-1.7166,-1.7174,-1.707,-1.707,-1.7069,-1.7069,0,-1.7092,-1.7107,-1.7129,-1.7127,-1.7133,-1.7155,-1.7134,-1.7142,-1.7124,-1.7113,-1.7137,-1.7129,-1.7135,-1.7141,-1.7125,-1.717,-1.7159,-1.7136,-1.7102,-1.7158,-1.7177,-1.7185,-1.7074,-1.7073,-1.7072,-1.7072,0,0,-1.7196,-1.7179,-1.7187,-1.7185,-1.7177,-1.7188,-1.7208,-1.7213,-1.722,-1.722,-1.7236,-1.7251,-1.7229,-1.7231,-1.7214,-1.723,-1.7281,-1.7205,-1.7204,-1.7219,-1.7329,-1.7347,-1.7357,-1.7266,-1.7267,-1.7269,-1.7329,0,-1.726,-1.7294,-1.7272,-1.7309,-1.7322,-1.7287,-1.7304,-1.7301,-1.729,-1.7299,-1.7287,-1.7298,-1.7268,-1.7269,-1.7284,-1.7272,-1.7303,-1.7267,-1.7281,-1.7281,-1.7283,-1.7367,-1.7386,-1.7444,-1.7337,-1.7338,-1.7339,0,-1.7341,-1.7343,-1.7382,-1.7369,-1.7373,-1.739,-1.7391,-1.7401,-1.7395,-1.7386,-1.7387,-1.7365,-1.7383,-1.7349,-1.7374,-1.735,-1.7354,-1.7349,-1.735,-1.7351,-1.7314,-1.737,-1.7462,-1.7471,-1.7351,-1.735,-1.7349,0,-1.7412,-1.7425,-1.7449,-1.7449,-1.7434,-1.7446,-1.7441,-1.7434,-1.7438,-1.7439,-1.7441,-1.7445,-1.7447,-1.745,-1.743,-1.7407,-1.7457,-1.7421,-1.745,-1.745,-1.7462,-1.7462,-1.7556,-1.7465,-1.7464,-1.7464,-1.7464,0,-1.7487,-1.7512,-1.748,-1.7496,-1.7522,-1.7495,-1.7522,-1.7513,-1.7506,-1.7518,-1.7488,-1.7501,-1.7472,-1.7481,-1.7465,-1.7488,-1.7489,-1.7482,-1.7477,-1.7485,-1.7486,-1.7487,-1.7483,-1.7467,-1.7466,-1.7466,-1.7465,0,-1.7572,-1.7551,-1.7575,-1.7559,-1.7556,-1.7576,-1.7562,-1.7575,-1.7561,-1.7577,-1.7579,-1.7557,-1.7566,-1.7546,-1.7552,-1.7541,-1.7573,-1.7562,-1.7575,-1.7571,-1.7601,-1.7598,-1.77,-1.7711,-1.7612,-1.7613,-1.7614,0,-1.7621,-1.7639,-1.7624,-1.763,-1.7626,-1.7636,-1.7639,-1.7613,-1.7617,-1.7611,-1.7625,-1.7631,-1.7635,-1.765,-1.7636,-1.764,-1.7629,-1.7664,-1.7629,-1.7636,-1.7629,-1.7628,-1.7629,-1.7671,-1.7672,-1.7673,-1.7674,0,-1.7711,-1.7699,-1.7705,-1.7707,-1.7711,-1.7712,-1.771,-1.7716,-1.7688,-1.7695,-1.7703,-1.7706,-1.7711,-1.7717,-1.7718,-1.7712,-1.7689,-1.7685,-1.7692,-1.77,-1.7706,-1.7703,-1.7594,-1.7683,-1.7682,-1.7682,-1.7681,-1.7681,-1.7779,-1.7793,-1.7784,-1.7791,-1.7786,-1.7785,-1.7796,-1.7783,-1.7789,-1.7791,-1.7775,-1.7786,-1.7779,-1.7777,-1.7773,-1.7782,-1.7766,-1.7776,-1.7778,-1.7781,-1.7786,-1.7704,-1.7782,-1.7781,-1.7781,-1.7781,-1.7781,0,-1.7867,-1.7859,-1.7865,-1.7863,-1.7868,-1.7844,-1.7841,-1.7847,-1.7857,-1.7852,-1.7855,-1.7864,-1.787,-1.7854,-1.7857,-1.7867,-1.7856,-1.7869,-1.7868,-1.7867,-1.78,-1.7794,-1.7877,-1.7877,-1.7877,-1.7877,-1.7877,-1.7877,-1.7913,-1.7935,-1.7922,-1.7941,-1.7933,-1.7943,-1.7943,-1.7941,-1.7937,-1.7948,-1.7952,-1.7941,-1.7932,-1.7933,-1.7937,-1.7933,-1.7935,-1.7951,-1.7943,-1.7881,-1.7872,-1.7863,-1.7857,-1.7952,-1.7952,-1.8009,-1.801,-1.801]}]]